Date String (YYYY-MM-DD hh:mm:ss) UTC,Instrument flags,absolute air pressure of the measurement (hPa),sample flow rate (lpm),inlet stack bypass flow (lpm),air temperature of the measurement (°C),ambient temperature measured by the external sensor (°C),aerosol sample conditioner tube jacket temperature (°C),OPC LED temperature (°C),internal box temperature (°C),relative humidity of the measurement (%),span deviation,mass concentration of particles derived from Lorenz-Mie calculation of OPC scattering (μg/m³),mass concentration of particles derived from Lorenz-Mie calculation of OPC scattering (μg/m³),mass concentration of particles derived from Lorenz-Mie calculation of OPC scattering (μg/m³)
DateTimeUTC,F1_M11,P_M11,Q1_M11,Q2_M11,T1_M11,T2_M11,T3_M11,T4_M11,T5_M11,U1_M11,ZSPAN_M11,X2_M11,X0_M11,X1_M11
2024-02-04 22:00:00,SystemResetWarning,0829.4,5.01,000.00,022.7,022.2,000.0,031.0,024.5,18.3,0000.5,0008.50,0010.83,0008.32
2024-02-04 22:01:00,SystemResetWarning,0829.4,5.00,000.00,022.7,022.2,000.0,031.0,024.5,18.2,0000.4,0008.48,0010.81,0008.31
2024-02-04 22:02:00,SystemResetWarning,0829.5,4.99,000.00,022.7,022.2,000.0,031.0,024.5,18.2,0000.1,0008.45,0010.78,0008.28
2024-02-04 22:03:00,SystemResetWarning,0829.5,4.99,000.00,022.7,022.2,000.0,031.0,024.5,18.3,0000.2,0008.42,0010.73,0008.25
2024-02-04 22:04:00,SystemResetWarning,0829.5,5.00,000.00,022.7,022.2,000.0,031.0,024.5,18.2,0000.2,0008.36,0010.68,0008.20
2024-02-04 22:05:00,SystemResetWarning,0829.5,5.01,000.00,022.7,022.2,000.0,031.0,024.5,18.2,0000.2,0008.32,0010.58,0008.17
2024-02-04 22:06:00,SystemResetWarning,0829.6,5.00,000.00,022.7,022.2,000.0,031.0,024.5,18.2,0000.3,0008.28,0010.54,0008.15
2024-02-04 22:07:00,SystemResetWarning,0829.7,4.99,000.00,022.7,022.2,000.0,031.0,024.5,18.2,0000.1,0008.26,0010.51,0008.13
2024-02-04 22:08:00,SystemResetWarning,0829.7,5.00,000.00,022.7,022.2,000.0,031.0,024.6,18.1,0000.3,0008.23,0010.44,0008.11
2024-02-04 22:09:00,SystemResetWarning,0829.7,4.99,000.00,022.7,022.2,000.0,031.0,024.5,17.9,0000.8,0008.22,0010.38,0008.11
2024-02-04 22:10:00,SystemResetWarning,0829.7,5.00,000.00,022.7,022.2,000.0,031.0,024.5,17.8,0000.7,0008.24,0010.55,0008.13
2024-02-04 22:11:00,SystemResetWarning,0829.7,4.99,000.00,022.7,022.2,000.0,031.0,024.6,17.8,0000.5,0008.26,0010.91,0008.14
2024-02-04 22:12:00,SystemResetWarning,0829.7,5.00,000.00,022.7,022.2,000.0,031.0,024.5,17.8,0000.8,0008.25,0011.13,0008.13
2024-02-04 22:13:00,SystemResetWarning,0829.7,5.00,000.00,022.7,022.2,000.0,031.0,024.6,17.7,0001.3,0008.24,0011.09,0008.13
2024-02-04 22:14:00,SystemResetWarning,0829.7,5.01,000.00,022.8,022.2,000.0,031.1,024.6,17.8,0001.2,0008.23,0011.08,0008.12
2024-02-04 22:15:00,SystemResetWarning,0829.7,5.01,000.00,022.8,022.2,000.0,031.1,024.6,17.8,0001.3,0008.20,0011.04,0008.10
2024-02-04 22:16:00,SystemResetWarning,0829.7,5.00,000.00,022.8,022.2,000.0,031.1,024.6,17.7,0001.4,0008.19,0011.02,0008.08
2024-02-04 22:17:00,SystemResetWarning,0829.7,5.00,000.00,022.8,022.2,000.0,031.1,024.6,17.7,0001.5,0008.21,0011.08,0008.08
2024-02-04 22:18:00,SystemResetWarning,0829.6,5.00,000.00,022.8,022.3,000.0,031.1,024.6,17.7,0001.4,0008.20,0011.09,0008.06
2024-02-04 22:19:00,SystemResetWarning,0829.6,5.00,000.00,022.8,022.3,000.0,031.1,024.6,17.7,0001.1,0008.16,0011.04,0008.03
2024-02-04 22:20:00,SystemResetWarning,0829.6,5.00,000.00,022.8,022.3,000.0,031.1,024.6,17.7,0000.8,0008.14,0011.01,0008.00
2024-02-04 22:21:00,SystemResetWarning,0829.6,4.99,000.00,022.8,022.3,000.0,031.1,024.6,17.6,0000.7,0008.10,0010.90,0007.98
2024-02-04 22:22:00,SystemResetWarning,0829.7,5.00,000.00,022.8,022.3,000.0,031.1,024.6,17.6,0000.7,0008.04,0010.52,0007.93
2024-02-04 22:23:00,SystemResetWarning,0829.7,4.99,000.00,022.8,022.3,000.0,031.1,024.6,17.6,0000.5,0007.99,0010.11,0007.88
2024-02-04 22:24:00,SystemResetWarning,0829.7,5.00,000.00,022.8,022.3,000.0,031.1,024.6,17.6,0000.0,0007.95,0010.09,0007.82
2024-02-04 22:25:00,SystemResetWarning,0829.7,5.00,000.00,022.8,022.3,000.0,031.1,024.6,17.7,-000.4,0007.89,0010.15,0007.76
2024-02-04 22:26:00,SystemResetWarning,0829.7,5.00,000.00,022.8,022.3,000.0,031.1,024.6,17.7,-000.8,0007.87,0010.15,0007.73
2024-02-04 22:27:00,SystemResetWarning,0829.7,5.00,000.00,022.8,022.3,000.0,031.1,024.6,17.7,-001.3,0007.84,0010.12,0007.70
2024-02-04 22:28:00,SystemResetWarning,0829.7,5.00,000.00,022.8,022.3,000.0,031.1,024.7,17.7,-001.5,0007.77,0009.99,0007.66
2024-02-04 22:29:00,SystemResetWarning,0829.7,5.00,000.00,022.8,022.3,000.0,031.1,024.6,17.7,-001.0,0007.73,0009.90,0007.64
2024-02-04 22:30:00,SystemResetWarning,0829.7,5.00,000.00,022.8,022.3,000.0,031.1,024.6,17.8,-001.1,0007.74,0009.94,0007.64
2024-02-04 22:31:00,SystemResetWarning,0829.7,5.01,000.00,022.8,022.3,000.0,031.1,024.6,17.7,-000.9,0007.77,0010.02,0007.66
2024-02-04 22:32:00,SystemResetWarning,0829.7,5.01,000.00,022.8,022.3,000.0,031.1,024.6,17.8,-000.7,0007.78,0010.03,0007.66
2024-02-04 22:33:00,SystemResetWarning,0829.7,5.00,000.00,022.8,022.3,000.0,031.2,024.7,17.7,-000.6,0007.79,0010.03,0007.67
2024-02-04 22:34:00,SystemResetWarning,0829.7,5.01,000.00,022.8,022.3,000.0,031.1,024.7,17.7,-000.4,0007.80,0010.04,0007.69
2024-02-04 22:35:00,SystemResetWarning,0829.7,5.01,000.00,022.8,022.3,000.0,031.2,024.6,17.7,-000.1,0007.83,0010.08,0007.72
2024-02-04 22:36:00,SystemResetWarning,0829.7,5.01,000.00,022.9,022.3,000.0,031.1,024.7,17.8,0000.5,0007.85,0009.98,0007.74
2024-02-04 22:37:00,SystemResetWarning,0829.6,5.00,000.00,022.9,022.3,000.0,031.2,024.7,17.8,0000.8,0007.89,0010.00,0007.78
2024-02-04 22:38:00,SystemResetWarning,0829.7,5.00,000.00,022.9,022.3,000.0,031.1,024.7,17.8,0001.1,0007.90,0010.00,0007.79
2024-02-04 22:39:00,SystemResetWarning,0829.6,5.01,000.00,022.9,022.3,000.0,031.1,024.7,17.9,0001.0,0007.91,0010.00,0007.80
2024-02-04 22:40:00,SystemResetWarning,0829.7,5.00,000.00,022.9,022.3,000.0,031.2,024.7,17.9,0000.9,0007.93,0010.03,0007.82
2024-02-04 22:41:00,SystemResetWarning,0829.7,5.00,000.00,022.9,022.3,000.0,031.2,024.7,18.0,0001.3,0007.96,0010.08,0007.85
2024-02-04 22:42:00,SystemResetWarning,0829.7,5.00,000.00,022.9,022.3,000.0,031.2,024.7,18.0,0001.3,0008.01,0010.05,0007.91
2024-02-04 22:43:00,SystemResetWarning,0829.7,4.99,000.00,022.9,022.3,000.0,031.2,024.7,18.0,0001.5,0008.07,0010.09,0007.96
2024-02-04 22:44:00,SystemResetWarning,0829.7,5.00,000.00,022.8,022.2,000.0,031.2,024.7,18.1,0001.1,0008.19,0010.23,0008.09
2024-02-04 22:45:00,SystemResetWarning,0829.7,5.00,000.00,022.8,022.2,000.0,031.2,024.7,18.2,0001.3,0008.36,0010.40,0008.26
2024-02-04 22:46:00,SystemResetWarning,0829.7,5.00,000.00,022.8,022.2,000.0,031.2,024.6,18.3,0001.2,0008.48,0010.50,0008.38
2024-02-04 22:47:00,SystemResetWarning,0829.7,5.01,000.00,022.8,022.2,000.0,031.2,024.7,18.3,0000.7,0008.62,0010.69,0008.52
2024-02-04 22:48:00,SystemResetWarning,0829.7,5.01,000.00,022.8,022.2,000.0,031.2,024.7,18.4,0001.4,0008.81,0010.91,0008.70
2024-02-04 22:49:00,SystemResetWarning,0829.7,5.00,000.00,022.8,022.2,000.0,031.2,024.7,18.3,0001.6,0009.03,0011.20,0008.90
2024-02-04 22:50:00,SystemResetWarning,0829.6,5.00,000.00,022.8,022.2,000.0,031.2,024.7,18.3,0001.6,0009.23,0011.42,0009.09
2024-02-04 22:51:00,SystemResetWarning,0829.6,4.99,000.00,022.8,022.2,000.0,031.2,024.7,18.3,0001.0,0009.43,0011.64,0009.29
2024-02-04 22:52:00,SystemResetWarning,0829.6,4.99,000.00,022.8,022.2,000.0,031.2,024.6,18.4,0000.9,0009.54,0011.76,0009.41
2024-02-04 22:53:00,SystemResetWarning,0829.6,5.00,000.00,022.8,022.1,000.0,031.2,024.6,18.4,0000.7,0009.61,0011.83,0009.48
2024-02-04 22:54:00,SystemResetWarning,0829.6,5.01,000.00,022.8,022.1,000.0,031.2,024.6,18.4,0000.8,0009.72,0011.97,0009.59
2024-02-04 22:55:00,SystemResetWarning,0829.6,5.01,000.00,022.8,022.1,000.0,031.2,024.6,18.4,0000.8,0009.79,0012.06,0009.66
2024-02-04 22:56:00,SystemResetWarning,0829.6,5.00,000.00,022.8,022.1,000.0,031.2,024.6,18.5,0000.7,0009.80,0012.09,0009.67
2024-02-04 22:57:00,SystemResetWarning,0829.6,5.01,000.00,022.8,022.1,000.0,031.2,024.6,18.4,0000.6,0009.84,0012.16,0009.69
2024-02-04 22:58:00,SystemResetWarning,0829.6,5.00,000.00,022.8,022.1,000.0,031.2,024.6,18.4,0000.4,0009.88,0012.58,0009.74
2024-02-04 22:59:00,SystemResetWarning,0829.7,5.00,000.00,022.8,022.1,000.0,031.2,024.6,18.5,-000.2,0009.88,0012.79,0009.73
